Hourly Weather Roundup
Issued by NWS Central Illinois

Home | Current Version | Previous Version | Text Only | Print | Product List | Glossary On
Versions: 1 2 3 4 5 6 7 8 9 10 11 12 13 14 15 16 17 18 19 20 21 22 23 24 25 26 27 28 29 30 31 32 33 34 35 36 37 38 39 40 41 42 43 44 45 46 47 48 49 50
000
NZUS43 KILX 282010
HWRILX

AREA WEATHER ROUNDUP
NATIONAL WEATHER SERVICE, LINCOLN IL
300 PM CDT MON JUL 28 2014


CITY           SKY/WX    TMP DP  RH WIND       PRES   REMARKS
BLOOMINGTON    MOSUNNY   71  51  49 NW16      30.12R
CHAMPAIGN      PTSUNNY   72  54  53 N13       30.08S
DECATUR        PTSUNNY   73  53  49 N14G24    30.10S
FLORA          SUNNY     75  57  54 NW12      30.07S
GALESBURG      PTSUNNY   72  53  50 N13       30.14S
JACKSONVILLE   PTSUNNY   73  56  55 NW12      30.14S
LACON          MOSUNNY   71  49  45 N8G17     30.11S
LAWRENCEVILLE  PTSUNNY   76  59  55 NW15G22   30.05R
LITCHFIELD     PTSUNNY   73  56  55 N14       30.11F
$$


CITY           SKY/WX    TMP DP  RH WIND       PRES   REMARKS
LINCOLN        MOSUNNY   74  52  45 N12G17    30.09S
MACOMB         MOSUNNY   72  53  50 N9        30.17S
MATTOON        PTSUNNY   71  55  56 N15       30.07S
MT CARMEL AP   PTSUNNY   77  59  53 NW13      30.04F
OLNEY-NOBLE AP PTSUNNY   73  59  60 NW10G18   30.06F
PARIS          PTSUNNY   72  56  58 NW10G16   30.07S
PEORIA         MOSUNNY   74  50  42 N10G17    30.12R
PONTIAC        SUNNY     72  52  49 N8G17     30.09S
RANTOUL        PTSUNNY   73  51  45 NW13      30.08F
ROBINSON       MOSUNNY   76  59  56 NW14      30.06S
SPRINGFIELD    PTSUNNY   74  55  51 N12       30.12S
TAYLORVILLE    MOSUNNY   70  54  56 N13       30.10S
$$

...REGIONAL REPORTS...


CITY           SKY/WX    TMP DP  RH WIND       PRES   REMARKS
CHICAGO O`HARE PTSUNNY   71  44  37 N12       30.08S
KANKAKEE       SUNNY     69  47  45 N14G22    30.10R
MOLINE         PTSUNNY   73  49  42 N9        30.14S
MOUNT VERNON   MOSUNNY   75  61  60 N8        30.07S
PITTSFIELD     MOSUNNY   74  54  49 NW9G17    30.15S
QUINCY         MOSUNNY   73  54  51 NW14      30.15S
ROCKFORD       PTSUNNY   72  47  40 N17       30.13S
$$


CITY           SKY/WX    TMP DP  RH WIND       PRES   REMARKS
BURLINGTON     PTSUNNY   73  52  47 N14       30.15S
CEDAR RAPIDS   PTSUNNY   75  50  41 N12       30.15S
DES MOINES     PTSUNNY   76  54  46 W9        30.19F
KIRKSVILLE     PTSUNNY   78  55  44 N12       30.20S
OTTUMWA        CLOUDY    71  55  56 NW14      30.19S
ST LOUIS       PTSUNNY   80  61  52 N14       30.11S HX  81
$$


CITY           SKY/WX    TMP DP  RH WIND       PRES   REMARKS
TERRE HAUTE    MOSUNNY   74  55  51 N12G21    30.04S
EVANSVILLE     PTSUNNY   79  59  50 N8        30.03F HX  80
INDIANAPOLIS   PTSUNNY   71  54  54 N16G25    30.02R
LAFAYETTE      PTSUNNY   69  54  58 N17       30.06R
MADISON        PTSUNNY   72  50  45 N8        30.11F
MILWAUKEE      PTSUNNY   65  50  58 NE10      30.10R
$$




USA.gov is the U.S. government's official web portal to all federal, state and local government web resources and services.